Location: *
(47.6569°N, 7.4256°E)
Time: 06:14:13
(UTC+00:00)

Cosmos 1092 Rocket - Pass Details

Date: 14 December 2019
Orbit: 953 x 996 km, 83.0° (Epoch: 17 January)

Event Time Altitude Azimuth Distance (km) Brightness Sun altitude
Rises 16:49:04 0° 181° (S) 3,688 7.4 -11.2°
Reaches altitude 10° 16:51:35 10° 180° (S) 2,739 6.6 -11.6°
Maximum altitude 16:57:51 77° 96° (E) 1,009 4.0 -12.6°
Drops below altitude 10° 17:04:06 10° 11° (NNE) 2,728 6.0 -13.6°
Sets 17:06:36 0° 11° (N) 3,673 6.7 -14.0°
